{"data":{"norad_id":52280,"epoch":"2026-05-25T02:20:48.428736Z","epoch_age_seconds":62445,"freshness":"FRESH","line1":"1 52280U 22041V   26145.09778274 -.00000608  00000+0 -20126-4 0  9998","line2":"2 52280  53.2135 126.1103 0001470  71.7764 288.3388 15.08830109225909","mean_motion":15.08830109,"eccentricity":0.000147,"inclination_deg":53.2135,"raan_deg":126.1103,"arg_perigee_deg":71.7764,"mean_anomaly_deg":288.3388,"bstar":-2.0126e-5,"rev_number":22590,"period_min":95.438180310067,"perigee_km":538.75668909788,"apogee_km":540.79055482073,"semimajor_km":6917.9106219593,"source":"CELESTRAK","updated_at":"2026-05-25T13:38:17.083651Z"}}